Tracking 25709 objects as of 24-May-2022
HD Live streaming from Space Station
objects crossing your sky now

ARIANE 5 R/B

Track ARIANE 5 R/B now!


NORAD ID: 26110
Int'l Code: 2000-016D
Perigee: 769.4 km
Apogee: 35,375.1 km
Inclination: 6.5 °
Period: 633.9 minutes
Semi major axis: 24443 km
RCS: 26.5605 m2 (large)
Launch date: March 21, 2000
Source: France (FR)
Launch site: FRENCH GUIANA (FRGUI)

Note: This is a ROCKET BODY
aabbcc
Your satellite tracking list
Your tracking list is empty




NASA's NSSDC Master Catalog

Two Line Element Set (TLE):
1 26110U 00016D   22141.49898859 -.00000119  00000-0 -21184-3 0  9999
2 26110   6.5189 236.2612 7078793 304.8033   7.8142  2.27176892184015
Source of the keplerian elements: AFSPC